Starlink 4473

operational
NORAD ID: 53660 Int'l Des: 2022-105 Owner: SPXS Country: US Constellation: starlink
LEOCIRCULARRETROGRADESSO

关于 Starlink 4473

正在加载描述...

实时位置

正在加载3D地球...

即将过境

高度历史

Altitude vs Time

uPlot chart will show altitude changes over time

两行轨道根数

1 53660U 22105N 25306.38338007 .00000385 00000-0 34504-4 0 9994
2 53660 97.6015 185.5739 0001755 86.6492 273.4933 15.01259149174135
Epoch: Nov 2, 2025 • Age: 31 hours

当前状态

高度 571.5 km
速度 7.58 km/s
星下点 57.13°N, 105.95°W
发射日期 Aug 31, 2022
运行时间 3.1 years
类型 internet

技术详情

分类 Payload
质量 300.00 kg
干质量 290.00 kg
总质量 300.00 kg
长度 0.20 m
直径 2.80 m
跨度 9.00 m
形状 Box + pan
制造商 SPXS
平台类型 Starlink
阶段状态 In Orbit
所有者/国家 SPXS/US

大型星座

Loading constellations...